Overview Statistics Trail Chart Weather Telemetry Raw packets
 

This is the latest recevied weather packets stored in our database for station/object KB8TTR. If no packets are shown the sender has not sent any weather packets the latest 10 day(s).

<< 26 27 28 29 30 31 32 >>
Time Temp. Humidity Pressure Rain* Wind** Luminosity Snow
1788437310 26.11° C 84% 1016.7 hPa 0 mm - 70 W/m² -
1788437009 26.11° C 84% 1016.6 hPa 0 mm - 70 W/m² -
1788436707 25.56° C 85% 1016.8 hPa 0 mm - 63 W/m² -
1788436402 25.56° C 86% 1016.5 hPa 0 mm - 53 W/m² -
1788436102 25° C 87% 1016.3 hPa 0 mm - 44 W/m² -
1788435798 25° C 89% 1016.3 hPa 0 mm - 36 W/m² -
1788435493 24.44° C 90% 1016.3 hPa 0 mm - 31 W/m² -
1788435189 24.44° C 91% 1016.3 hPa 0 mm - 25 W/m² -
1788434884 24.44° C 91% 1016.2 hPa 0 mm - 21 W/m² -
1788434580 24.44° C 92% 1016.1 hPa 0 mm - 17 W/m² -
1788434279 23.89° C 92% 1016.2 hPa 0 mm - 13 W/m² -
1788433974 23.89° C 92% 1016.2 hPa 0 mm - 9 W/m² -
1788433670 23.89° C 92% 1016 hPa 0 mm - 6 W/m² -
1788433366 23.89° C 92% 1016.1 hPa 0 mm - 4 W/m² -
1788433065 23.89° C 92% 1016.1 hPa 0 mm - 2 W/m² -
1788432760 24.44° C 91% 1016.1 hPa 0 mm - 1 W/m² -
1788432460 24.44° C 91% 1016 hPa 0 mm - 0 W/m² -
1788432155 24.44° C 91% 1016 hPa 0 mm - 0 W/m² -
1788431851 24.44° C 91% 1016.1 hPa 0 mm - 0 W/m² -
1788431547 24.44° C 91% 1016 hPa 0 mm - 0 W/m² -
1788431243 24.44° C 91% 1015.8 hPa 0 mm - 0 W/m² -
1788430943 24.44° C 91% 1015.8 hPa 0 mm - 0 W/m² -
1788430641 24.44° C 90% 1015.7 hPa 0 mm - 0 W/m² -
1788430338 24.44° C 90% 1015.8 hPa 0 mm - 0 W/m² -
1788430038 24.44° C 90% 1015.9 hPa 0 mm - 0 W/m² -

* Rain latest hour (hover to see other rain measurements)
** Current wind speed in m/s (hover to see current wind gust speed)